Time,TemperatureF,DewpointF,PressureIn,WindDirection,WindDirectionDegrees,WindSpeedMPH,WindSpeedGustMPH,Humidity,HourlyPrecipIn,Conditions,Clouds,dailyrainin,SoftwareType,DateUTC
2013-01-11 00:02:00,47.5,45.0,29.74,SE,135,1.1,1.6,91,0.00,,,0.00,VWS V14.01,2013-01-11 06:02:00,
2013-01-11 00:10:00,47.5,45.0,29.74,SSW,202,2.5,3.4,91,0.00,,,0.00,VWS V14.01,2013-01-11 06:10:00,
2013-01-11 00:15:00,47.5,45.0,29.74,South,180,0.0,2.9,91,0.00,,,0.00,VWS V14.01,2013-01-11 06:15:00,
2013-01-11 00:20:00,47.6,45.1,29.74,SW,225,2.5,2.5,91,0.00,,,0.00,VWS V14.01,2013-01-11 06:20:00,
2013-01-11 00:25:00,47.6,45.1,29.75,SW,225,1.8,2.5,91,0.00,,,0.00,VWS V14.01,2013-01-11 06:25:00,
2013-01-11 00:30:00,47.6,45.1,29.75,SE,135,1.6,1.8,91,0.00,,,0.00,VWS V14.01,2013-01-11 06:30:00,
2013-01-11 00:35:00,47.5,45.0,29.75,SSW,202,3.4,3.4,91,0.00,,,0.00,VWS V14.01,2013-01-11 06:35:00,
2013-01-11 00:40:00,47.6,45.1,29.75,WNW,292,1.1,4.0,91,0.00,,,0.00,VWS V14.01,2013-01-11 06:40:00,
2013-01-11 00:45:00,47.6,45.1,29.76,SSW,202,2.5,2.5,91,0.00,,,0.00,VWS V14.01,2013-01-11 06:45:00,
2013-01-11 00:50:00,47.6,45.1,29.76,SSE,158,0.7,2.5,91,0.00,,,0.00,VWS V14.01,2013-01-11 06:50:00,
2013-01-11 00:55:00,47.6,45.1,29.76,SSW,202,2.0,2.9,91,0.00,,,0.00,VWS V14.01,2013-01-11 06:55:00,
2013-01-11 01:03:00,47.6,45.1,29.76,SW,225,1.3,2.7,91,0.00,,,0.00,VWS V14.01,2013-01-11 07:03:00,
2013-01-11 01:10:00,47.6,45.1,29.75,SSE,158,0.7,2.5,91,0.00,,,0.00,VWS V14.01,2013-01-11 07:10:00,
2013-01-11 01:15:00,47.6,45.1,29.76,SW,225,3.1,3.1,91,0.00,,,0.00,VWS V14.01,2013-01-11 07:15:00,
2013-01-11 01:20:00,47.6,45.1,29.75,SSE,158,0.0,3.1,91,0.00,,,0.00,VWS V14.01,2013-01-11 07:20:00,
2013-01-11 01:25:00,47.6,45.1,29.75,South,180,1.8,2.2,91,0.00,,,0.00,VWS V14.01,2013-01-11 07:25:00,
2013-01-11 01:30:00,47.6,45.1,29.76,SSE,158,0.4,2.9,91,0.00,,,0.00,VWS V14.01,2013-01-11 07:30:00,
2013-01-11 01:35:00,47.8,45.3,29.75,South,180,0.4,2.2,91,0.00,,,0.00,VWS V14.01,2013-01-11 07:35:00,
2013-01-11 01:40:00,47.8,45.3,29.75,South,180,1.8,2.0,91,0.00,,,0.00,VWS V14.01,2013-01-11 07:40:00,
2013-01-11 01:45:00,47.8,45.3,29.76,SSW,202,1.1,2.5,91,0.00,,,0.00,VWS V14.01,2013-01-11 07:45:00,
2013-01-11 01:50:00,47.8,45.3,29.75,SSE,158,0.9,2.0,91,0.00,,,0.00,VWS V14.01,2013-01-11 07:50:00,
2013-01-11 01:55:00,47.8,45.3,29.75,SW,225,2.5,2.5,91,0.00,,,0.00,VWS V14.01,2013-01-11 07:55:00,
2013-01-11 02:03:00,47.8,45.3,29.74,SE,135,1.6,1.8,91,0.00,,,0.00,VWS V14.01,2013-01-11 08:03:00,
2013-01-11 02:10:00,47.8,45.3,29.73,South,180,0.4,1.8,91,0.00,,,0.00,VWS V14.01,2013-01-11 08:10:00,
2013-01-11 02:15:00,47.8,45.3,29.73,WSW,248,1.6,1.6,91,0.00,,,0.00,VWS V14.01,2013-01-11 08:15:00,
2013-01-11 02:20:00,48.0,45.5,29.73,SSW,202,0.4,2.0,91,0.00,,,0.00,VWS V14.01,2013-01-11 08:20:00,
2013-01-11 02:25:00,47.8,45.3,29.74,SSW,202,4.0,4.0,91,0.00,,,0.00,VWS V14.01,2013-01-11 08:25:00,
2013-01-11 02:30:00,47.8,45.3,29.74,SSE,158,1.8,4.0,91,0.00,,,0.00,VWS V14.01,2013-01-11 08:30:00,
2013-01-11 02:35:00,48.0,45.5,29.74,SSW,202,3.1,3.1,91,0.00,,,0.00,VWS V14.01,2013-01-11 08:35:00,
2013-01-11 02:40:00,48.0,45.5,29.74,South,180,1.8,3.1,91,0.00,,,0.00,VWS V14.01,2013-01-11 08:40:00,
2013-01-11 02:45:00,47.8,45.3,29.75,NW,315,1.3,3.4,91,0.00,,,0.00,VWS V14.01,2013-01-11 08:45:00,
2013-01-11 02:50:00,48.0,45.5,29.75,South,180,1.3,3.1,91,0.00,,,0.00,VWS V14.01,2013-01-11 08:50:00,
2013-01-11 02:55:00,47.8,45.3,29.75,SSE,158,1.8,4.5,91,0.00,,,0.00,VWS V14.01,2013-01-11 08:55:00,
2013-01-11 03:03:00,47.8,45.3,29.75,SE,135,3.8,3.8,91,0.00,,,0.00,VWS V14.01,2013-01-11 09:03:00,
2013-01-11 03:10:00,48.0,45.5,29.74,SE,135,2.0,5.1,91,0.00,,,0.00,VWS V14.01,2013-01-11 09:10:00,
2013-01-11 03:15:00,47.8,45.3,29.74,SW,225,1.8,2.0,91,0.00,,,0.00,VWS V14.01,2013-01-11 09:15:00,
2013-01-11 03:20:00,47.8,45.3,29.75,WSW,248,3.6,3.6,91,0.00,,,0.00,VWS V14.01,2013-01-11 09:20:00,
2013-01-11 03:25:00,47.8,45.3,29.74,SSW,202,2.0,4.0,91,0.00,,,0.00,VWS V14.01,2013-01-11 09:25:00,
2013-01-11 03:30:00,47.8,45.3,29.74,WSW,248,3.4,4.5,91,0.00,,,0.00,VWS V14.01,2013-01-11 09:30:00,
2013-01-11 03:35:00,47.8,45.3,29.74,SSW,202,1.8,3.4,91,0.00,,,0.00,VWS V14.01,2013-01-11 09:35:00,
2013-01-11 03:40:00,47.8,45.3,29.74,SE,135,1.8,4.9,91,0.00,,,0.00,VWS V14.01,2013-01-11 09:40:00,
2013-01-11 03:45:00,47.8,45.3,29.74,SSW,202,1.8,2.0,91,0.00,,,0.00,VWS V14.01,2013-01-11 09:45:00,
2013-01-11 03:53:00,47.6,45.1,29.74,SSW,202,6.3,6.3,91,0.00,,,0.00,VWS V14.01,2013-01-11 09:53:00,
2013-01-11 04:00:00,47.6,45.1,29.73,ESE,112,1.8,6.3,91,0.00,,,0.00,VWS V14.01,2013-01-11 10:00:00,
2013-01-11 04:05:00,47.6,45.1,29.73,SE,135,1.3,3.4,91,0.00,,,0.00,VWS V14.01,2013-01-11 10:05:00,
2013-01-11 04:10:00,47.6,45.1,29.73,SSW,202,3.6,3.6,91,0.00,,,0.00,VWS V14.01,2013-01-11 10:10:00,
2013-01-11 04:15:00,47.6,45.1,29.73,WSW,248,2.9,3.6,91,0.00,,,0.00,VWS V14.01,2013-01-11 10:15:00,
2013-01-11 04:20:00,47.6,45.1,29.73,East,90,1.1,2.9,91,0.00,,,0.00,VWS V14.01,2013-01-11 10:20:00,
2013-01-11 04:25:00,47.6,45.1,29.73,SSW,202,2.7,3.4,91,0.00,,,0.00,VWS V14.01,2013-01-11 10:25:00,
2013-01-11 04:30:00,47.6,45.1,29.72,SSW,202,1.1,2.7,91,0.00,,,0.00,VWS V14.01,2013-01-11 10:30:00,
2013-01-11 04:35:00,47.6,45.1,29.71,SW,225,1.8,4.0,91,0.00,,,0.00,VWS V14.01,2013-01-11 10:35:00,
2013-01-11 04:40:00,47.6,45.1,29.72,SSW,202,1.1,3.4,91,0.00,,,0.00,VWS V14.01,2013-01-11 10:40:00,
2013-01-11 04:45:00,47.6,45.1,29.73,South,180,0.9,1.3,91,0.00,,,0.00,VWS V14.01,2013-01-11 10:45:00,
2013-01-11 04:50:00,47.6,45.1,29.73,SW,225,2.7,2.7,91,0.00,,,0.00,VWS V14.01,2013-01-11 10:50:00,
2013-01-11 04:55:00,47.6,45.1,29.73,South,180,0.4,2.7,91,0.00,,,0.00,VWS V14.01,2013-01-11 10:55:00,
2013-01-11 05:03:00,47.6,45.1,29.72,SSW,202,0.9,2.5,91,0.00,,,0.00,VWS V14.01,2013-01-11 11:03:00,
2013-01-11 05:10:00,47.6,45.1,29.72,SSE,158,2.9,3.1,91,0.00,,,0.00,VWS V14.01,2013-01-11 11:10:00,
2013-01-11 05:15:00,47.8,45.3,29.71,SE,135,2.0,3.1,91,0.00,,,0.00,VWS V14.01,2013-01-11 11:15:00,
2013-01-11 05:20:00,47.8,45.3,29.71,SE,135,2.0,2.2,91,0.00,,,0.00,VWS V14.01,2013-01-11 11:20:00,
2013-01-11 05:25:00,47.8,45.3,29.71,SE,135,2.5,2.5,91,0.00,,,0.00,VWS V14.01,2013-01-11 11:25:00,
2013-01-11 05:30:00,47.6,45.1,29.72,WNW,292,1.1,2.7,91,0.00,,,0.00,VWS V14.01,2013-01-11 11:30:00,
2013-01-11 05:35:00,47.6,45.1,29.71,SE,135,3.1,3.1,91,0.00,,,0.00,VWS V14.01,2013-01-11 11:35:00,
2013-01-11 05:40:00,47.6,45.1,29.72,SSW,202,0.7,3.1,91,0.00,,,0.00,VWS V14.01,2013-01-11 11:40:00,
2013-01-11 05:45:00,47.6,45.1,29.72,South,180,1.1,4.0,91,0.00,,,0.00,VWS V14.01,2013-01-11 11:45:00,
2013-01-11 05:50:00,47.6,45.1,29.72,SSE,158,4.0,4.0,91,0.00,,,0.00,VWS V14.01,2013-01-11 11:50:00,
2013-01-11 05:55:00,47.6,44.8,29.71,SE,135,0.7,4.0,90,0.00,,,0.00,VWS V14.01,2013-01-11 11:55:00,
2013-01-11 06:03:00,47.6,44.8,29.71,SSE,158,2.7,2.7,90,0.00,,,0.00,VWS V14.01,2013-01-11 12:03:00,
2013-01-11 06:10:00,47.6,44.8,29.71,SW,225,2.5,4.5,90,0.00,,,0.00,VWS V14.01,2013-01-11 12:10:00,
2013-01-11 06:15:00,47.6,44.8,29.71,SSE,158,3.1,3.1,90,0.00,,OVC015,0.00,VWS V14.01,2013-01-11 12:15:00,
2013-01-11 06:20:00,47.6,44.8,29.72,South,180,1.1,3.1,90,0.00,,OVC015,0.00,VWS V14.01,2013-01-11 12:20:00,
2013-01-11 06:30:00,47.8,45.0,29.71,SE,135,6.3,6.3,90,0.00,,OVC012,0.00,VWS V14.01,2013-01-11 12:30:00,
2013-01-11 06:35:00,47.8,45.0,29.71,SSW,202,3.8,6.3,90,0.00,,OVC012,0.00,VWS V14.01,2013-01-11 12:35:00,
2013-01-11 06:43:00,48.0,45.2,29.71,SSE,158,1.1,5.4,90,0.00,,OVC012,0.00,VWS V14.01,2013-01-11 12:43:00,
2013-01-11 06:50:00,48.0,44.9,29.71,SW,225,4.7,4.7,89,0.00,,OVC012,0.00,VWS V14.01,2013-01-11 12:50:00,
2013-01-11 06:55:00,48.0,44.9,29.70,South,180,4.5,4.7,89,0.00,,OVC012,0.00,VWS V14.01,2013-01-11 12:55:00,
2013-01-11 07:03:00,48.0,44.9,29.70,WSW,248,2.9,5.8,89,0.00,,OVC012,0.00,VWS V14.01,2013-01-11 13:03:00,
2013-01-11 07:10:00,48.0,44.6,29.70,ESE,112,1.8,5.8,88,0.00,,OVC012,0.00,VWS V14.01,2013-01-11 13:10:00,
2013-01-11 07:20:00,48.0,44.6,29.69,SE,135,1.3,6.5,88,0.00,,OVC012,0.00,VWS V14.01,2013-01-11 13:20:00,
2013-01-11 07:25:00,48.0,44.6,29.69,SSW,202,4.0,4.5,88,0.00,,OVC012,0.00,VWS V14.01,2013-01-11 13:25:00,
2013-01-11 07:30:00,48.0,44.6,29.69,SE,135,4.3,6.9,88,0.00,,OVC012,0.00,VWS V14.01,2013-01-11 13:30:00,
2013-01-11 07:35:00,48.0,44.6,29.69,SE,135,2.9,6.3,88,0.00,,OVC012,0.00,VWS V14.01,2013-01-11 13:35:00,
2013-01-11 07:40:00,47.8,44.4,29.69,South,180,2.7,4.0,88,0.00,,OVC012,0.00,VWS V14.01,2013-01-11 13:40:00,
2013-01-11 07:45:00,47.8,44.4,29.69,SE,135,4.7,4.7,88,0.00,,OVC012,0.00,VWS V14.01,2013-01-11 13:45:00,
2013-01-11 07:50:00,47.8,44.4,29.69,SSE,158,1.8,4.7,88,0.00,,OVC012,0.00,VWS V14.01,2013-01-11 13:50:00,
2013-01-11 07:55:00,47.6,44.2,29.69,South,180,7.6,7.6,88,0.00,,OVC012,0.00,VWS V14.01,2013-01-11 13:55:00,
2013-01-11 08:03:00,47.6,44.2,29.69,ESE,112,4.3,4.3,88,0.00,,OVC012,0.00,VWS V14.01,2013-01-11 14:03:00,
2013-01-11 08:10:00,47.6,43.9,29.70,SE,135,2.9,6.0,87,0.00,,OVC012,0.00,VWS V14.01,2013-01-11 14:10:00,
2013-01-11 08:15:00,47.6,43.9,29.70,SSE,158,4.5,5.4,87,0.00,,OVC012,0.00,VWS V14.01,2013-01-11 14:15:00,
2013-01-11 08:20:00,47.6,43.9,29.69,South,180,6.7,6.7,87,0.00,,OVC012,0.00,VWS V14.01,2013-01-11 14:20:00,
2013-01-11 08:25:00,47.6,43.9,29.69,South,180,5.8,8.3,87,0.00,,OVC012,0.00,VWS V14.01,2013-01-11 14:25:00,
2013-01-11 08:30:00,47.5,43.8,29.69,SSE,158,4.7,7.4,87,0.00,,OVC012,0.00,VWS V14.01,2013-01-11 14:30:00,
2013-01-11 08:35:00,47.5,43.8,29.69,South,180,6.3,7.4,87,0.00,,OVC012,0.00,VWS V14.01,2013-01-11 14:35:00,
2013-01-11 08:40:00,47.3,43.6,29.69,South,180,4.0,6.3,87,0.00,,OVC012,0.00,VWS V14.01,2013-01-11 14:40:00,
2013-01-11 08:45:00,47.3,43.6,29.70,SSW,202,4.7,6.3,87,0.00,,OVC012,0.00,VWS V14.01,2013-01-11 14:45:00,
2013-01-11 08:53:00,47.3,43.6,29.69,SE,135,2.5,7.4,87,0.00,,OVC012,0.00,VWS V14.01,2013-01-11 14:53:00,
2013-01-11 09:00:00,47.3,43.3,29.70,SE,135,3.8,4.3,86,0.00,,OVC012,0.00,VWS V14.01,2013-01-11 15:00:00,
2013-01-11 09:05:00,47.3,43.3,29.70,South,180,6.0,6.5,86,0.00,,OVC012,0.00,VWS V14.01,2013-01-11 15:05:00,
2013-01-11 09:10:00,47.3,43.3,29.70,SE,135,3.4,8.9,86,0.00,,OVC012,0.00,VWS V14.01,2013-01-11 15:10:00,
2013-01-11 09:15:00,47.3,43.3,29.70,SSE,158,2.2,3.6,86,0.00,,SCT012,0.00,VWS V14.01,2013-01-11 15:15:00,
2013-01-11 09:20:00,47.5,43.8,29.70,SW,225,2.5,5.4,87,0.00,,SCT012,0.00,VWS V14.01,2013-01-11 15:20:00,
2013-01-11 09:25:00,47.5,43.5,29.69,SSW,202,5.8,7.6,86,0.00,,SCT012,0.00,VWS V14.01,2013-01-11 15:25:00,
2013-01-11 09:30:00,47.6,43.6,29.69,West,270,6.0,10.5,86,0.00,,SCT012,0.00,VWS V14.01,2013-01-11 15:30:00,
2013-01-11 09:35:00,47.6,43.6,29.69,SSW,202,4.0,6.0,86,0.00,,SCT012,0.00,VWS V14.01,2013-01-11 15:35:00,
2013-01-11 09:40:00,47.6,43.6,29.69,SSW,202,4.0,4.3,86,0.00,,SCT012,0.00,VWS V14.01,2013-01-11 15:40:00,
2013-01-11 09:50:00,48.0,43.7,29.68,SSW,202,5.1,7.6,85,0.00,,SCT012,0.00,VWS V14.01,2013-01-11 15:50:00,
2013-01-11 09:55:00,48.0,43.7,29.68,SSE,158,4.7,5.1,85,0.00,,SCT012,0.00,VWS V14.01,2013-01-11 15:55:00,
2013-01-11 10:03:00,48.4,43.8,29.69,SSW,202,3.8,9.2,84,0.00,,SCT012,0.00,VWS V14.01,2013-01-11 16:03:00,
2013-01-11 10:10:00,48.4,43.8,29.69,SE,135,1.8,8.5,84,0.00,,SCT012,0.00,VWS V14.01,2013-01-11 16:10:00,
2013-01-11 10:15:00,48.5,43.9,29.68,WSW,248,3.4,6.3,84,0.00,,CLR,0.00,VWS V14.01,2013-01-11 16:15:00,
2013-01-11 10:20:00,48.7,43.8,29.68,WSW,248,7.4,7.6,83,0.00,,CLR,0.00,VWS V14.01,2013-01-11 16:20:00,
2013-01-11 10:25:00,49.1,44.2,29.68,SE,135,2.0,7.4,83,0.00,,CLR,0.00,VWS V14.01,2013-01-11 16:25:00,
2013-01-11 10:30:00,49.3,44.0,29.67,SSW,202,4.0,5.4,82,0.00,,CLR,0.00,VWS V14.01,2013-01-11 16:30:00,
2013-01-11 10:35:00,49.3,44.0,29.67,SSW,202,4.9,4.9,82,0.00,,CLR,0.00,VWS V14.01,2013-01-11 16:35:00,
2013-01-11 10:40:00,49.4,44.1,29.68,South,180,4.0,7.6,82,0.00,,CLR,0.00,VWS V14.01,2013-01-11 16:40:00,
2013-01-11 10:45:00,49.6,44.3,29.67,SE,135,6.3,6.3,82,0.00,,CLR,0.00,VWS V14.01,2013-01-11 16:45:00,
2013-01-11 10:50:00,49.8,44.5,29.66,ESE,112,2.7,8.3,82,0.00,,CLR,0.00,VWS V14.01,2013-01-11 16:50:00,
2013-01-11 10:55:00,50.0,44.4,29.65,South,180,1.6,6.9,81,0.00,,CLR,0.00,VWS V14.01,2013-01-11 16:55:00,
2013-01-11 11:03:00,50.2,44.6,29.66,SSW,202,1.6,3.6,81,0.00,,CLR,0.00,VWS V14.01,2013-01-11 17:03:00,
2013-01-11 11:10:00,50.3,44.4,29.65,SE,135,4.9,4.9,80,0.00,,CLR,0.00,VWS V14.01,2013-01-11 17:10:00,
2013-01-11 11:15:00,50.5,44.6,29.64,SSE,158,5.6,6.9,80,0.00,,CLR,0.00,VWS V14.01,2013-01-11 17:15:00,
2013-01-11 11:20:00,50.5,44.6,29.65,SE,135,4.0,5.6,80,0.00,,CLR,0.00,VWS V14.01,2013-01-11 17:20:00,
2013-01-11 11:25:00,50.9,45.0,29.65,SSE,158,4.3,5.4,80,0.00,,CLR,0.00,VWS V14.01,2013-01-11 17:25:00,
2013-01-11 11:30:00,51.1,44.8,29.64,SSW,202,4.5,4.7,79,0.00,,CLR,0.00,VWS V14.01,2013-01-11 17:30:00,
2013-01-11 11:35:00,51.4,44.8,29.65,SW,225,6.9,6.9,78,0.00,,CLR,0.00,VWS V14.01,2013-01-11 17:35:00,
2013-01-11 11:40:00,51.8,45.2,29.64,WSW,248,4.9,6.9,78,0.00,,CLR,0.00,VWS V14.01,2013-01-11 17:40:00,
2013-01-11 11:45:00,52.1,45.8,29.64,SSE,158,7.6,9.8,79,0.00,,CLR,0.00,VWS V14.01,2013-01-11 17:45:00,
2013-01-11 11:50:00,53.0,46.3,29.64,SSW,202,4.0,7.6,78,0.00,,CLR,0.00,VWS V14.01,2013-01-11 17:50:00,
2013-01-11 11:55:00,53.9,46.9,29.64,South,180,3.4,4.0,77,0.00,,CLR,0.00,VWS V14.01,2013-01-11 17:55:00,
2013-01-11 12:04:00,54.7,46.9,29.63,WSW,248,9.2,9.2,75,0.00,,CLR,0.00,VWS V14.01,2013-01-11 18:04:00,
2013-01-11 12:10:00,54.8,46.7,29.64,SW,225,6.3,9.8,74,0.00,,CLR,0.00,VWS V14.01,2013-01-11 18:10:00,
2013-01-11 12:15:00,55.2,46.7,29.64,East,90,3.4,9.2,73,0.00,,CLR,0.00,VWS V14.01,2013-01-11 18:15:00,
2013-01-11 12:20:00,55.6,47.5,29.64,North,0,4.7,4.7,74,0.00,,CLR,0.00,VWS V14.01,2013-01-11 18:20:00,
2013-01-11 12:25:00,55.7,47.2,29.63,SE,135,2.2,5.4,73,0.00,,CLR,0.00,VWS V14.01,2013-01-11 18:25:00,
2013-01-11 12:30:00,55.6,46.7,29.63,SW,225,6.9,7.2,72,0.00,,CLR,0.00,VWS V14.01,2013-01-11 18:30:00,
2013-01-11 12:35:00,55.4,46.5,29.63,SE,135,7.6,7.6,72,0.00,,CLR,0.00,VWS V14.01,2013-01-11 18:35:00,
2013-01-11 12:40:00,55.2,46.3,29.63,SSE,158,4.0,7.6,72,0.00,,CLR,0.00,VWS V14.01,2013-01-11 18:40:00,
2013-01-11 12:45:00,55.4,46.2,29.63,SW,225,2.9,7.8,71,0.00,,CLR,0.00,VWS V14.01,2013-01-11 18:45:00,
2013-01-11 12:50:00,55.4,46.2,29.63,SW,225,2.2,6.0,71,0.00,,CLR,0.00,VWS V14.01,2013-01-11 18:50:00,
2013-01-11 12:55:00,55.6,46.4,29.63,West,270,2.5,7.6,71,0.00,,CLR,0.00,VWS V14.01,2013-01-11 18:55:00,
2013-01-11 13:04:00,55.4,45.8,29.62,SE,135,2.2,7.6,70,0.00,,CLR,0.00,VWS V14.01,2013-01-11 19:04:00,
2013-01-11 13:10:00,55.2,45.6,29.62,SSW,202,3.4,4.5,70,0.00,,CLR,0.00,VWS V14.01,2013-01-11 19:10:00,
2013-01-11 13:15:00,55.2,45.6,29.62,SW,225,10.1,10.1,70,0.00,,CLR,0.00,VWS V14.01,2013-01-11 19:15:00,
2013-01-11 13:20:00,55.0,45.4,29.61,SW,225,4.0,10.1,70,0.00,,CLR,0.00,VWS V14.01,2013-01-11 19:20:00,
2013-01-11 13:25:00,55.0,45.4,29.61,SW,225,4.0,4.3,70,0.00,,CLR,0.00,VWS V14.01,2013-01-11 19:25:00,
2013-01-11 13:30:00,55.0,45.4,29.61,SW,225,4.7,5.1,70,0.00,,CLR,0.00,VWS V14.01,2013-01-11 19:30:00,
2013-01-11 13:35:00,55.0,45.4,29.60,SE,135,3.6,4.9,70,0.00,,CLR,0.00,VWS V14.01,2013-01-11 19:35:00,
2013-01-11 13:40:00,55.2,45.6,29.60,South,180,3.1,3.6,70,0.00,,CLR,0.00,VWS V14.01,2013-01-11 19:40:00,
2013-01-11 13:45:00,55.4,45.8,29.60,SE,135,5.1,5.1,70,0.00,,CLR,0.00,VWS V14.01,2013-01-11 19:45:00,
2013-01-11 13:50:00,55.6,46.0,29.60,SSE,158,5.6,5.6,70,0.00,,CLR,0.00,VWS V14.01,2013-01-11 19:50:00,
2013-01-11 14:00:00,55.7,46.1,29.60,South,180,4.7,6.9,70,0.00,,CLR,0.00,VWS V14.01,2013-01-11 20:00:00,
2013-01-11 14:05:00,55.7,46.1,29.60,SSW,202,2.2,4.9,70,0.00,,CLR,0.00,VWS V14.01,2013-01-11 20:05:00,
2013-01-11 14:10:00,55.9,46.3,29.60,SW,225,4.5,5.4,70,0.00,,CLR,0.00,VWS V14.01,2013-01-11 20:10:00,
2013-01-11 14:15:00,56.1,46.5,29.60,South,180,2.5,5.8,70,0.00,,CLR,0.00,VWS V14.01,2013-01-11 20:15:00,
2013-01-11 14:20:00,56.3,46.3,29.61,SSW,202,4.7,5.6,69,0.00,,CLR,0.00,VWS V14.01,2013-01-11 20:20:00,
2013-01-11 14:25:00,56.3,46.3,29.61,SE,135,2.9,4.7,69,0.00,,CLR,0.00,VWS V14.01,2013-01-11 20:25:00,
2013-01-11 14:30:00,56.3,46.3,29.60,SE,135,1.3,7.6,69,0.00,,CLR,0.00,VWS V14.01,2013-01-11 20:30:00,
2013-01-11 14:35:00,56.3,46.3,29.60,WSW,248,2.2,4.9,69,0.00,,CLR,0.00,VWS V14.01,2013-01-11 20:35:00,
2013-01-11 14:40:00,56.3,46.3,29.60,SW,225,4.7,5.4,69,0.00,,CLR,0.00,VWS V14.01,2013-01-11 20:40:00,
2013-01-11 14:45:00,56.3,45.9,29.59,SSE,158,4.3,5.1,68,0.00,,CLR,0.00,VWS V14.01,2013-01-11 20:45:00,
2013-01-11 14:50:00,56.3,45.9,29.60,South,180,5.4,5.8,68,0.00,,CLR,0.00,VWS V14.01,2013-01-11 20:50:00,
2013-01-11 14:55:00,56.3,45.9,29.60,SE,135,6.0,6.0,68,0.00,,CLR,0.00,VWS V14.01,2013-01-11 20:55:00,
2013-01-11 15:04:00,56.3,45.9,29.60,South,180,8.5,8.5,68,0.00,,CLR,0.00,VWS V14.01,2013-01-11 21:04:00,
2013-01-11 15:10:00,56.3,45.9,29.60,SW,225,4.7,4.7,68,0.00,,CLR,0.00,VWS V14.01,2013-01-11 21:10:00,
2013-01-11 15:15:00,56.5,45.7,29.59,SSW,202,3.6,4.7,67,0.00,,CLR,0.00,VWS V14.01,2013-01-11 21:15:00,
2013-01-11 15:20:00,56.5,45.7,29.60,SSE,158,6.0,6.0,67,0.00,,CLR,0.00,VWS V14.01,2013-01-11 21:20:00,
2013-01-11 15:25:00,56.3,45.5,29.59,South,180,1.1,6.0,67,0.00,,CLR,0.00,VWS V14.01,2013-01-11 21:25:00,
2013-01-11 15:30:00,56.3,45.5,29.60,WSW,248,4.0,4.0,67,0.00,,CLR,0.00,VWS V14.01,2013-01-11 21:30:00,
2013-01-11 15:35:00,56.3,45.5,29.60,SE,135,2.0,4.5,67,0.00,,CLR,0.00,VWS V14.01,2013-01-11 21:35:00,
2013-01-11 15:40:00,56.3,45.5,29.60,SW,225,3.4,4.0,67,0.00,,CLR,0.00,VWS V14.01,2013-01-11 21:40:00,
2013-01-11 15:45:00,56.3,45.5,29.60,SSW,202,6.3,6.9,67,0.00,,CLR,0.00,VWS V14.01,2013-01-11 21:45:00,
2013-01-11 15:50:00,56.3,45.5,29.60,SW,225,5.6,6.3,67,0.00,,CLR,0.00,VWS V14.01,2013-01-11 21:50:00,
2013-01-11 15:55:00,56.3,45.5,29.60,SSE,158,7.6,8.1,67,0.00,,CLR,0.00,VWS V14.01,2013-01-11 21:55:00,
2013-01-11 16:04:00,56.3,45.5,29.61,ESE,112,2.5,6.7,67,0.00,,CLR,0.00,VWS V14.01,2013-01-11 22:04:00,
2013-01-11 16:10:00,56.3,45.5,29.61,SSW,202,4.9,4.9,67,0.00,,CLR,0.00,VWS V14.01,2013-01-11 22:10:00,
2013-01-11 16:15:00,56.1,45.3,29.61,SSE,158,1.8,4.9,67,0.00,,CLR,0.00,VWS V14.01,2013-01-11 22:15:00,
2013-01-11 16:20:00,56.1,45.3,29.61,ESE,112,3.8,4.7,67,0.00,,CLR,0.00,VWS V14.01,2013-01-11 22:20:00,
2013-01-11 16:25:00,55.9,45.1,29.60,SSE,158,5.4,5.4,67,0.00,,CLR,0.00,VWS V14.01,2013-01-11 22:25:00,
2013-01-11 16:30:00,55.9,45.1,29.60,SE,135,2.2,5.4,67,0.00,,CLR,0.00,VWS V14.01,2013-01-11 22:30:00,
2013-01-11 16:35:00,55.9,45.1,29.60,SE,135,4.0,4.7,67,0.00,,CLR,0.00,VWS V14.01,2013-01-11 22:35:00,
2013-01-11 16:40:00,55.7,44.9,29.60,North,0,3.1,6.5,67,0.00,,CLR,0.00,VWS V14.01,2013-01-11 22:40:00,
2013-01-11 16:45:00,55.9,45.1,29.60,SE,135,2.5,4.0,67,0.00,,CLR,0.00,VWS V14.01,2013-01-11 22:45:00,
2013-01-11 16:50:00,55.9,45.1,29.60,SW,225,1.8,6.9,67,0.00,,CLR,0.00,VWS V14.01,2013-01-11 22:50:00,
2013-01-11 16:55:00,55.9,45.1,29.60,SE,135,6.3,6.3,67,0.00,,CLR,0.00,VWS V14.01,2013-01-11 22:55:00,
2013-01-11 17:04:00,55.9,45.1,29.61,SSW,202,2.5,4.0,67,0.00,,CLR,0.00,VWS V14.01,2013-01-11 23:04:00,
2013-01-11 17:10:00,55.9,45.1,29.61,SE,135,3.1,6.3,67,0.00,,CLR,0.00,VWS V14.01,2013-01-11 23:10:00,
2013-01-11 17:20:00,55.9,45.1,29.61,SE,135,4.0,6.3,67,0.00,,CLR,0.00,VWS V14.01,2013-01-11 23:20:00,
2013-01-11 17:25:00,55.9,45.1,29.62,SSE,158,3.4,6.9,67,0.00,,CLR,0.00,VWS V14.01,2013-01-11 23:25:00,
2013-01-11 17:30:00,55.9,45.1,29.62,SE,135,2.5,3.4,67,0.00,,CLR,0.00,VWS V14.01,2013-01-11 23:30:00,
2013-01-11 17:35:00,55.9,45.1,29.62,SSE,158,4.7,5.4,67,0.00,,CLR,0.00,VWS V14.01,2013-01-11 23:35:00,
2013-01-11 17:40:00,55.9,45.1,29.62,SW,225,3.1,4.7,67,0.00,,CLR,0.00,VWS V14.01,2013-01-11 23:40:00,
2013-01-11 17:45:00,55.9,45.1,29.61,SE,135,6.0,6.0,67,0.00,,CLR,0.00,VWS V14.01,2013-01-11 23:45:00,
2013-01-11 17:50:00,55.9,45.1,29.62,SSE,158,2.5,6.0,67,0.00,,CLR,0.00,VWS V14.01,2013-01-11 23:50:00,
2013-01-11 17:55:00,55.9,45.1,29.62,SSW,202,5.4,6.3,67,0.00,,CLR,0.00,VWS V14.01,2013-01-11 23:55:00,
2013-01-11 18:04:00,55.9,44.7,29.63,South,180,2.2,3.6,66,0.00,,CLR,0.00,VWS V14.01,2013-01-12 00:04:00,
2013-01-11 18:10:00,55.7,44.9,29.63,SW,225,5.6,5.6,67,0.00,,CLR,0.00,VWS V14.01,2013-01-12 00:10:00,
2013-01-11 18:15:00,55.9,44.7,29.62,SE,135,2.2,5.6,66,0.00,,CLR,0.00,VWS V14.01,2013-01-12 00:15:00,
2013-01-11 18:20:00,55.9,44.7,29.63,SSE,158,2.7,6.7,66,0.00,,CLR,0.00,VWS V14.01,2013-01-12 00:20:00,
2013-01-11 18:25:00,55.9,44.7,29.62,SW,225,2.9,2.9,66,0.00,,CLR,0.00,VWS V14.01,2013-01-12 00:25:00,
2013-01-11 18:30:00,55.9,44.7,29.63,SSW,202,4.0,4.0,66,0.00,,CLR,0.00,VWS V14.01,2013-01-12 00:30:00,
2013-01-11 18:35:00,55.9,44.7,29.63,SSE,158,3.1,5.4,66,0.00,,CLR,0.00,VWS V14.01,2013-01-12 00:35:00,
2013-01-11 18:40:00,55.9,44.7,29.63,SSE,158,3.8,3.8,66,0.00,,CLR,0.00,VWS V14.01,2013-01-12 00:40:00,
2013-01-11 18:45:00,55.9,44.7,29.63,South,180,4.7,6.5,66,0.00,,CLR,0.00,VWS V14.01,2013-01-12 00:45:00,
2013-01-11 18:50:00,55.9,44.7,29.64,WSW,248,0.4,4.7,66,0.00,,CLR,0.00,VWS V14.01,2013-01-12 00:50:00,
2013-01-11 18:55:00,56.1,44.9,29.63,East,90,3.4,4.0,66,0.00,,CLR,0.00,VWS V14.01,2013-01-12 00:55:00,
2013-01-11 19:04:00,56.1,44.5,29.63,East,90,4.7,5.4,65,0.00,,CLR,0.00,VWS V14.01,2013-01-12 01:04:00,
2013-01-11 19:10:00,56.1,44.9,29.63,SSW,202,2.9,5.4,66,0.00,,CLR,0.00,VWS V14.01,2013-01-12 01:10:00,
2013-01-11 19:15:00,56.1,44.9,29.63,SSW,202,6.0,6.0,66,0.00,,CLR,0.00,VWS V14.01,2013-01-12 01:15:00,
2013-01-11 19:20:00,56.1,44.9,29.63,ESE,112,2.2,6.0,66,0.00,,CLR,0.00,VWS V14.01,2013-01-12 01:20:00,
2013-01-11 19:25:00,56.1,44.9,29.63,South,180,4.0,8.9,66,0.00,,CLR,0.00,VWS V14.01,2013-01-12 01:25:00,
2013-01-11 19:30:00,56.1,44.9,29.64,SSE,158,2.2,5.1,66,0.00,,CLR,0.00,VWS V14.01,2013-01-12 01:30:00,
2013-01-11 19:35:00,56.1,44.9,29.64,South,180,3.4,4.5,66,0.00,,CLR,0.00,VWS V14.01,2013-01-12 01:35:00,
2013-01-11 19:40:00,56.1,44.9,29.64,SE,135,4.5,5.1,66,0.00,,CLR,0.00,VWS V14.01,2013-01-12 01:40:00,
2013-01-11 19:45:00,56.1,44.9,29.63,SE,135,3.4,7.6,66,0.00,,CLR,0.00,VWS V14.01,2013-01-12 01:45:00,
2013-01-11 19:50:00,56.1,44.9,29.63,SW,225,6.3,6.3,66,0.00,,CLR,0.00,VWS V14.01,2013-01-12 01:50:00,
2013-01-11 19:55:00,56.3,45.1,29.64,South,180,3.4,6.3,66,0.00,,CLR,0.00,VWS V14.01,2013-01-12 01:55:00,
2013-01-11 20:04:00,56.3,45.1,29.64,WSW,248,2.0,3.4,66,0.00,,CLR,0.00,VWS V14.01,2013-01-12 02:04:00,
2013-01-11 20:10:00,56.1,44.9,29.64,SE,135,2.0,5.1,66,0.00,,CLR,0.00,VWS V14.01,2013-01-12 02:10:00,
2013-01-11 20:15:00,55.9,44.7,29.64,SE,135,1.1,4.0,66,0.00,,CLR,0.00,VWS V14.01,2013-01-12 02:15:00,
2013-01-11 20:20:00,55.9,44.7,29.64,SSW,202,3.1,3.1,66,0.00,,CLR,0.00,VWS V14.01,2013-01-12 02:20:00,
2013-01-11 20:25:00,55.7,44.5,29.64,SE,135,2.7,5.1,66,0.00,,CLR,0.00,VWS V14.01,2013-01-12 02:25:00,
2013-01-11 20:30:00,55.7,44.5,29.64,SSE,158,4.0,4.0,66,0.00,,CLR,0.00,VWS V14.01,2013-01-12 02:30:00,
2013-01-11 20:35:00,55.7,44.5,29.64,SE,135,4.7,4.7,66,0.00,,CLR,0.00,VWS V14.01,2013-01-12 02:35:00,
2013-01-11 20:40:00,55.7,44.9,29.64,ESE,112,2.5,4.7,67,0.00,,CLR,0.00,VWS V14.01,2013-01-12 02:40:00,
2013-01-11 20:45:00,55.7,44.9,29.64,SE,135,2.5,4.5,67,0.00,,CLR,0.00,VWS V14.01,2013-01-12 02:45:00,
2013-01-11 20:50:00,55.7,44.9,29.64,SSE,158,5.6,5.6,67,0.00,,CLR,0.00,VWS V14.01,2013-01-12 02:50:00,
2013-01-11 20:55:00,55.9,45.1,29.65,South,180,3.6,5.6,67,0.00,,CLR,0.00,VWS V14.01,2013-01-12 02:55:00,
2013-01-11 21:04:00,55.7,44.9,29.65,SE,135,4.5,4.7,67,0.00,,CLR,0.00,VWS V14.01,2013-01-12 03:04:00,
2013-01-11 21:10:00,55.7,44.9,29.65,SW,225,2.9,5.4,67,0.00,,CLR,0.00,VWS V14.01,2013-01-12 03:10:00,
2013-01-11 21:15:00,55.9,45.1,29.66,SW,225,2.5,4.0,67,0.00,,CLR,0.00,VWS V14.01,2013-01-12 03:15:00,
2013-01-11 21:20:00,55.9,45.1,29.66,South,180,4.3,4.9,67,0.00,,CLR,0.00,VWS V14.01,2013-01-12 03:20:00,
2013-01-11 21:25:00,55.9,44.7,29.66,WSW,248,4.0,4.5,66,0.00,,CLR,0.00,VWS V14.01,2013-01-12 03:25:00,
2013-01-11 21:30:00,55.9,44.7,29.66,SSE,158,2.5,4.0,66,0.00,,CLR,0.00,VWS V14.01,2013-01-12 03:30:00,
2013-01-11 21:35:00,55.7,44.9,29.66,SE,135,4.0,4.0,67,0.00,,CLR,0.00,VWS V14.01,2013-01-12 03:35:00,
2013-01-11 21:40:00,55.7,44.9,29.66,South,180,1.8,4.0,67,0.00,,CLR,0.00,VWS V14.01,2013-01-12 03:40:00,
2013-01-11 21:45:00,55.9,45.1,29.66,SSW,202,3.1,5.4,67,0.00,,CLR,0.00,VWS V14.01,2013-01-12 03:45:00,
2013-01-11 21:50:00,55.9,45.1,29.67,SSW,202,4.0,4.0,67,0.00,,CLR,0.00,VWS V14.01,2013-01-12 03:50:00,
2013-01-11 21:55:00,56.1,45.3,29.67,NW,315,1.3,4.0,67,0.00,,CLR,0.00,VWS V14.01,2013-01-12 03:55:00,
2013-01-11 22:04:00,56.1,44.9,29.68,West,270,4.7,4.7,66,0.00,,CLR,0.00,VWS V14.01,2013-01-12 04:04:00,
2013-01-11 22:10:00,56.3,45.1,29.68,WSW,248,2.5,3.4,66,0.00,,FEW070,0.00,VWS V14.01,2013-01-12 04:10:00,
2013-01-11 22:15:00,56.3,45.1,29.69,SSW,202,1.8,5.4,66,0.00,,FEW070,0.00,VWS V14.01,2013-01-12 04:15:00,
2013-01-11 22:20:00,56.3,45.1,29.69,SSE,158,3.1,3.4,66,0.00,,FEW070,0.00,VWS V14.01,2013-01-12 04:20:00,
2013-01-11 22:25:00,56.3,45.1,29.69,South,180,1.8,3.1,66,0.00,,FEW070,0.00,VWS V14.01,2013-01-12 04:25:00,
2013-01-11 22:30:00,56.3,45.1,29.69,SW,225,2.2,2.2,66,0.00,,FEW070,0.00,VWS V14.01,2013-01-12 04:30:00,
2013-01-11 22:35:00,56.3,45.1,29.69,South,180,1.8,4.3,66,0.00,,FEW070,0.00,VWS V14.01,2013-01-12 04:35:00,
2013-01-11 22:40:00,56.3,45.1,29.69,NW,315,1.1,3.6,66,0.00,,FEW070,0.00,VWS V14.01,2013-01-12 04:40:00,
2013-01-11 22:45:00,56.3,45.1,29.69,SSW,202,2.9,3.6,66,0.00,,FEW070,0.00,VWS V14.01,2013-01-12 04:45:00,
2013-01-11 22:50:00,56.3,45.1,29.70,NNW,338,2.5,2.9,66,0.00,,FEW070,0.00,VWS V14.01,2013-01-12 04:50:00,
2013-01-11 22:55:00,56.3,45.1,29.70,SSW,202,4.7,6.9,66,0.00,,FEW070,0.00,VWS V14.01,2013-01-12 04:55:00,
2013-01-11 23:00:00,56.6,45.4,29.70,SSE,158,3.4,6.3,66,0.00,,FEW070,0.00,VWS V14.01,2013-01-12 05:00:00,
2013-01-11 23:05:00,56.6,45.4,29.71,WNW,292,4.7,4.7,66,0.00,,FEW070,0.00,VWS V14.01,2013-01-12 05:05:00,
2013-01-11 23:10:00,56.6,45.4,29.71,SSW,202,4.0,6.5,66,0.00,,FEW070,0.00,VWS V14.01,2013-01-12 05:10:00,
2013-01-11 23:15:00,56.6,45.4,29.71,West,270,5.4,5.4,66,0.00,,OVC060,0.00,VWS V14.01,2013-01-12 05:15:00,
2013-01-11 23:20:00,56.6,45.0,29.71,WNW,292,5.6,6.9,65,0.00,,OVC060,0.00,VWS V14.01,2013-01-12 05:20:00,
2013-01-11 23:25:00,56.6,44.6,29.71,SE,135,2.2,8.7,64,0.00,,OVC060,0.00,VWS V14.01,2013-01-12 05:25:00,
2013-01-11 23:30:00,56.6,44.6,29.72,NNW,338,3.1,6.0,64,0.00,,OVC060,0.00,VWS V14.01,2013-01-12 05:30:00,
2013-01-11 23:35:00,56.6,44.2,29.72,WSW,248,4.0,7.6,63,0.00,,OVC060,0.00,VWS V14.01,2013-01-12 05:35:00,
2013-01-11 23:40:00,56.5,44.1,29.72,WSW,248,2.5,4.0,63,0.00,,OVC060,0.00,VWS V14.01,2013-01-12 05:40:00,
2013-01-11 23:45:00,56.1,43.3,29.73,SW,225,5.1,7.2,62,0.00,,OVC060,0.00,VWS V14.01,2013-01-12 05:45:00,
2013-01-11 23:50:00,55.9,43.1,29.74,WNW,292,2.7,6.0,62,0.00,,OVC060,0.00,VWS V14.01,2013-01-12 05:50:00,
2013-01-11 23:55:00,55.6,42.4,29.74,West,270,5.4,5.4,61,0.00,,OVC060,0.00,VWS V14.01,2013-01-12 05:55:00,